Location: Winthrop
(48.4780°N, 120.1850°W)
Time: 05:27:11
(UTC-08:00)

Vanguard 1 Rocket - Pass Details

Date: 01 December 2023
Orbit: 654 x 4218 km, 34.3° (Epoch: 24 February)

Event Time Altitude Azimuth Distance (km) Brightness Sun altitude
Rises 05:53:23 0° 230° (SW) 7,897 11.8 -15.6°
Reaches altitude 10° 06:00:05 10° 223° (SW) 6,395 11.4 -14.5°
Maximum altitude 06:15:15 34° 168° (SSE) 3,319 10.5 -12.1°
Drops below altitude 10° 06:24:08 10° 109° (ESE) 3,746 12.2 -10.7°
Sets 06:26:53 0° 99° (E) 4,368 12.8 -10.3°
